User: anonymous   Login
Location: Caltech
(34.1382°N, 118.1253°W)
Time: 15:55:20
(UTC-07:00)
Language:

Cosmos 1484 Rocket - Orbit

View from above orbital plane
View from above orbital plane
View from above satellite
View from above satellite

Ground track
Ground track

The orbit data is extracted from the following two-line orbital elements,

1 14208U 83075B   15108.81072714  .00003619  00000-0  23066-3 0  9992
2 14208 097.3896 139.5623 0040175 336.7900 023.1514 15.08683175728257
Epoch (UTC): 18 April 2015 19:27:26
Eccentricity: 0.0040175
inclination: 97.3896°
perigee height: 512 km
apogee height: 568 km
right ascension of ascending node: 139.5623°
argument of perigee: 336.7900°
revolutions per day: 15.08683175
mean anomaly at epoch: 23.1514°
orbit number at epoch: 72825

The dashed part of the orbit path shows where the satellite is in the earth's shadow,  

DLR